COSMOS 894

Satellite information

Favourite Embed

Satellite Type and Status

PAYLOADIN ORBIT

Key statistics

Satellite COSMOS 894 at a glance.

Uptime

17828

Days in orbit

Revolutions

≈ 13.7

Per day

Orbit

LEO

Low Earth Orbit

Inclination

82.9

Latest

Satellite identification and parameters

Extended collection of information and parameters for COSMOS 894.

Object identification

Identified? True

Debris? False

Object name: COSMOS 894

International designator: 1977-013A

Object number (NORAD): 9846

Object ID (CCSDS): 9846

Country: COMMONWEALTH OF INDEPENDENT STATES (CIS)

Current information (Y/N): Y

RCS size: LARGE

Orbital parameters

Period: 104.789 minutes

Inclination: 82.9439 deg

SMA: 7362.709 km

Apoapsis: 1006.881 km

Periapsis: 962.266 km

RAAN: 235.4509 deg

Eccentricy: 0.00302977

Argument of periapsis: 12.3115 deg

Mean anomaly: 101.9066 deg

Mean motion: 13.74188595 rev/day

Mean motion (dot): 0.0000009 rev/day2

B* drag term: 0.000078923563 1/REarth

Two-line elements (TLE)

Creation date: Dec. 12, 2025, 10:14 a.m.

Reference frame: TEME

Reference center: EARTH

Epoch: Dec. 12, 2025, 5:17 a.m. UTC

TLE line 0: 0 COSMOS 894

TLE line 1: 1 09846U 77013A 25346.22077562 .00000090 00000-0 78924-4 0 9999

TLE line 2: 2 09846 82.9439 235.4509 0030298 12.3115 101.9066 13.74188595446498

Live tracking on map

Real-time ground track for satellite COSMOS 894.

In-orbit conjunctions

A list of the most updated potential collisions computed for object COSMOS 894.

Target Orbit TCA Probability of collision Miss distance Type
DIAMANT B-P4 DEB LEO 2024-06-02 01:50:24 0.001257216 57.0 (m) DEBRIS

Associated space launch

Navigation satellite providing location information for the Tsiklon-B navigation system

COSMOS 894 was lifted into orbit during the mission ‘Kosmos-3M | Parus 8’, on board a Kosmos-3M space rocket.

The launch took place on Feb. 21, 1977, 5:20 p.m. from 132/1 (132L).

For more information about the launch, click the button.

Launch to space Kosmos-3M | Parus 8
Kosmos-3M | Parus 8

Agency: N/A

Status: Launch Successful

Launch date: Feb. 21, 1977, 5:20 p.m. UTC

Rocket: Kosmos-3M

Launch pad: 132/1 (132L)

Location: Plesetsk Cosmodrome, Russian Federation

...

Latest news about this satellite

There are no fresh news available about this satellite. Check back as we update our databases every day.


Newsletter sign-up

Weekly statistics, charts and insights to help you stay on top of the space industry.